Weather History for Jackson, MS

Change the Weather History Date:

Friday, November 16, 2012

  Actual Average Record
Temperature  
Mean Temperature 50 °F 56 °F  
Max Temperature 64 °F 67 °F 86 °F (1931)
Min Temperature 35 °F 44 °F 18 °F (1916)
Degree Days  
Heating Degree Days 15 10  
Month to date heating degree days 168 130  
Since 1 July heating degree days 279 237  
Cooling Degree Days 0 1  
Month to date cooling degree days 11 17  
Year to date cooling degree days 2521 2248  
Moisture  
Dew Point 35 °F    
Average Humidity 60    
Maximum Humidity 92    
Minimum Humidity 28    
Precipitation  
Precipitation 0.00 in 0.16 in 2.21 in (1987)
Month to date precipitation 2.07 2.32  
Year to date precipitation 59.95 46.55  
Sea Level Pressure  
Sea Level Pressure 30.31 in    
Wind  
Wind Speed 4 mph (North)    
Max Wind Speed 14 mph    
Max Gust Speed 18 mph    
Visibility 10 miles    
Events      
T = Trace of Precipitation, MM = Missing Value Source: NWS Daily Summary

Daily Weather History Graph

Daily Weather History Graph

Search for Another Location

Airport:

Trip Planner

Search our weather history database for the weather conditions in past years. The results will help you decide how hot, cold, wet, or windy it might be!

Date:

Astronomy

Nov. 16, 2012 Rise Set
Actual Time 6:30 AM CST 4:59 PM CST
Civil Twilight 6:04 AM CST 5:25 PM CST
Nautical Twilight 5:35 AM CST 5:54 PM CST
Astronomical Twilight 5:05 AM CST 6:24 PM CST
Moon 9:22 AM CST (11/16) 8:00 PM CST (11/16)
Length of Visible Light 11h 20m
Length of Day
10h 28m
Waxing Crescent, 12% of the Moon is Illuminated
Nov 16
Waxing Crescent
Nov 20
First Quarter
Nov 28
Full
Dec 6
Last Quarter
Dec 13
New

Hourly Weather History & Observations

Time (CST) Temp. Windchill Dew Point Humidity Pressure Visibility Wind Dir Wind Speed Gust Speed Precip Events Conditions
12:54 AM 41.0 °F - 37.9 °F 89% 30.28 in 10.0 mi Calm Calm - N/A   Clear
1:54 AM 39.9 °F 37.8 °F 37.9 °F 93% 30.28 in 10.0 mi North 3.5 mph - N/A   Clear
2:54 AM 39.0 °F 36.8 °F 37.0 °F 93% 30.28 in 10.0 mi North 3.5 mph - N/A   Clear
3:54 AM 37.0 °F - 36.0 °F 96% 30.28 in 9.0 mi Calm Calm - N/A   Clear
4:54 AM 37.9 °F - 36.0 °F 93% 30.30 in 7.0 mi Calm Calm - N/A   Clear
5:54 AM 37.9 °F 35.5 °F 36.0 °F 93% 30.31 in 10.0 mi North 3.5 mph - N/A   Clear
6:54 AM 36.0 °F - 34.0 °F 93% 30.33 in 8.0 mi Calm Calm - N/A   Clear
7:54 AM 43.0 °F - 39.9 °F 89% 30.34 in 9.0 mi Calm Calm - N/A   Clear
8:54 AM 50.0 °F - 37.9 °F 63% 30.34 in 10.0 mi NE 4.6 mph - N/A   Clear
9:54 AM 55.0 °F - 36.0 °F 49% 30.34 in 10.0 mi NNE 4.6 mph - N/A   Clear
10:54 AM 57.9 °F - 36.0 °F 44% 30.34 in 10.0 mi North 9.2 mph - N/A   Clear
11:54 AM 61.0 °F - 32.0 °F 34% 30.32 in 10.0 mi North 12.7 mph - N/A   Clear
12:54 PM 63.0 °F - 32.0 °F 31% 30.30 in 10.0 mi NNE 9.2 mph - N/A   Clear
1:54 PM 63.0 °F - 32.0 °F 31% 30.28 in 10.0 mi North 9.2 mph - N/A   Clear
2:54 PM 64.0 °F - 30.9 °F 29% 30.27 in 10.0 mi North 10.4 mph - N/A   Clear
3:54 PM 62.1 °F - 32.0 °F 32% 30.28 in 10.0 mi North 10.4 mph - N/A   Clear
4:54 PM 55.0 °F - 34.0 °F 45% 30.28 in 10.0 mi North 5.8 mph - N/A   Clear
5:54 PM 51.1 °F - 36.0 °F 56% 30.30 in 10.0 mi NNW 3.5 mph - N/A   Clear
6:54 PM 46.0 °F - 36.0 °F 68% 30.31 in 10.0 mi Calm Calm - N/A   Clear
7:54 PM 46.0 °F 44.8 °F 36.0 °F 68% 30.32 in 10.0 mi North 3.5 mph - N/A   Clear
8:54 PM 46.0 °F - 36.0 °F 68% 30.33 in 10.0 mi Calm Calm - N/A   Clear
9:54 PM 44.1 °F 42.5 °F 37.0 °F 76% 30.34 in 10.0 mi North 3.5 mph - N/A   Clear
10:54 PM 41.0 °F - 36.0 °F 82% 30.34 in 10.0 mi Calm Calm - N/A   Clear
11:54 PM 41.0 °F 39.0 °F 37.0 °F 86% 30.34 in 10.0 mi NNW 3.5 mph - N/A   Clear